SBI116 UAAA-UNNT

Flight info

Callsign SBI116
Flight time N/A
Altitude 37000
Route DESOK L135 KABIZ DCT AGZ W360 SEM G121 RUBID DCT ORPAS
Aircraft A320/M-SDE3/L

Departure

Time N/A
Airport Almaty International Airport (UAAA)

Arrival

Time 2026-04-28 15:24
Airport Novosibirsk Tolmachevo Airport (UNNT)
Time Latitude Longitude Altitude Speed Heading
2026-04-28 13:59 46.46379 79.39024 37085 ft 459 kts 22°
2026-04-28 13:59 46.49256 79.41039 37114 ft 459 kts 22°
2026-04-28 13:59 46.54965 79.45046 37102 ft 459 kts 22°
2026-04-28 14:00 46.60709 79.49079 37100 ft 459 kts 22°
2026-04-28 14:00 46.66454 79.53122 37102 ft 459 kts 22°
2026-04-28 14:01 46.72198 79.57188 37092 ft 459 kts 22°
2026-04-28 14:01 46.77944 79.61257 37096 ft 459 kts 22°
2026-04-28 14:02 46.83689 79.65333 37098 ft 459 kts 22°
2026-04-28 14:02 46.89430 79.69428 37090 ft 459 kts 22°
2026-04-28 14:03 46.95172 79.73521 37117 ft 459 kts 22°
2026-04-28 14:03 47.00912 79.77618 37112 ft 459 kts 22°
2026-04-28 14:04 47.06651 79.81734 37109 ft 459 kts 22°
2026-04-28 14:04 47.11417 79.85167 37117 ft 459 kts 22°
2026-04-28 14:05 47.17152 79.89310 37118 ft 459 kts 23°
2026-04-28 14:05 47.22881 79.93446 37127 ft 459 kts 23°
2026-04-28 14:06 47.28610 79.97582 37132 ft 458 kts 23°
2026-04-28 14:06 47.34330 80.01731 37139 ft 458 kts 23°
2026-04-28 14:07 47.40051 80.05897 37147 ft 458 kts 23°
2026-04-28 14:07 47.45767 80.10059 37142 ft 458 kts 23°
2026-04-28 14:08 47.51479 80.14232 37145 ft 458 kts 23°
2026-04-28 14:08 47.57189 80.18411 37153 ft 458 kts 23°
2026-04-28 14:09 47.62891 80.22604 37166 ft 457 kts 24°
2026-04-28 14:09 47.68584 80.26800 37169 ft 457 kts 23°
2026-04-28 14:10 47.74273 80.30996 37179 ft 456 kts 24°
2026-04-28 14:10 47.79958 80.35192 37169 ft 456 kts 23°
2026-04-28 14:11 47.85599 80.39362 37184 ft 456 kts 24°
2026-04-28 14:11 47.91356 80.43230 37192 ft 451 kts 14°
2026-04-28 14:12 47.97485 80.44584 37185 ft 443 kts 356°
2026-04-28 14:12 48.03634 80.44079 37188 ft 443 kts 354°
2026-04-28 14:13 48.09783 80.43554 37203 ft 442 kts 354°
2026-04-28 14:13 48.15925 80.43028 37200 ft 442 kts 354°
2026-04-28 14:14 48.22063 80.42497 37204 ft 442 kts 354°
2026-04-28 14:14 48.28197 80.41973 37212 ft 441 kts 354°
2026-04-28 14:15 48.34326 80.41453 37221 ft 441 kts 355°
2026-04-28 14:15 48.40455 80.40919 37218 ft 441 kts 354°
2026-04-28 14:16 48.46581 80.40379 37223 ft 441 kts 354°
2026-04-28 14:16 48.52694 80.39844 37234 ft 440 kts 355°
2026-04-28 14:17 48.58802 80.39327 37231 ft 440 kts 355°
2026-04-28 14:17 48.64903 80.38801 37237 ft 439 kts 355°
2026-04-28 14:18 48.70999 80.38259 37242 ft 438 kts 355°
2026-04-28 14:18 48.77083 80.37726 37248 ft 438 kts 355°
2026-04-28 14:19 48.83162 80.37200 37242 ft 437 kts 355°
2026-04-28 14:19 48.89233 80.36659 37244 ft 437 kts 355°
2026-04-28 14:20 48.95302 80.36119 37243 ft 437 kts 355°
2026-04-28 14:20 49.01371 80.35590 37238 ft 437 kts 355°
2026-04-28 14:21 49.07439 80.35053 37240 ft 437 kts 355°
2026-04-28 14:21 49.13505 80.34510 37251 ft 437 kts 355°
2026-04-28 14:22 49.19568 80.33967 37250 ft 436 kts 355°
2026-04-28 14:22 49.25587 80.33438 37250 ft 436 kts 355°
2026-04-28 14:23 49.31644 80.32897 37252 ft 436 kts 355°
2026-04-28 14:23 49.37699 80.32352 37265 ft 436 kts 354°
2026-04-28 14:24 49.43744 80.31805 37262 ft 435 kts 354°
2026-04-28 14:24 49.49784 80.31260 37261 ft 435 kts 355°
2026-04-28 14:25 49.55818 80.30718 37260 ft 434 kts 354°
2026-04-28 14:25 49.61846 80.30169 37273 ft 434 kts 354°
2026-04-28 14:26 49.67869 80.29648 37273 ft 433 kts 355°
2026-04-28 14:26 49.73895 80.29190 37271 ft 433 kts 355°
2026-04-28 14:27 49.79917 80.28739 37280 ft 433 kts 355°
2026-04-28 14:27 49.85933 80.28266 37284 ft 432 kts 355°
2026-04-28 14:28 49.91940 80.27789 37281 ft 432 kts 355°
2026-04-28 14:28 49.97942 80.27313 37281 ft 432 kts 355°
2026-04-28 14:29 50.03938 80.26851 37294 ft 431 kts 355°
2026-04-28 14:29 50.09929 80.26381 37299 ft 431 kts 355°
2026-04-28 14:30 50.15915 80.25911 37303 ft 430 kts 355°
2026-04-28 14:30 50.21893 80.25436 37307 ft 430 kts 355°
2026-04-28 14:31 50.27866 80.24948 37321 ft 430 kts 354°
2026-04-28 14:31 50.33841 80.24970 37316 ft 432 kts
2026-04-28 14:32 50.39589 80.27845 37312 ft 438 kts 22°
2026-04-28 14:32 50.45086 80.32001 37304 ft 439 kts 22°
2026-04-28 14:33 50.50584 80.36158 37307 ft 439 kts 22°
2026-04-28 14:33 50.56081 80.40321 37302 ft 438 kts 22°
2026-04-28 14:34 50.64286 80.46552 37300 ft 438 kts 22°
2026-04-28 14:35 50.69774 80.50744 37307 ft 438 kts 22°
2026-04-28 14:35 50.75261 80.54948 37312 ft 438 kts 22°
2026-04-28 14:36 50.80746 80.59153 37336 ft 438 kts 22°
2026-04-28 14:36 50.86221 80.63369 37328 ft 437 kts 22°
2026-04-28 14:37 50.91691 80.67589 37329 ft 437 kts 22°
2026-04-28 14:37 50.97158 80.71809 37330 ft 437 kts 22°
2026-04-28 14:38 51.02621 80.76035 37328 ft 437 kts 22°
2026-04-28 14:38 51.08078 80.80275 37327 ft 437 kts 22°
2026-04-28 14:39 51.13531 80.84531 37325 ft 436 kts 22°
2026-04-28 14:39 51.18978 80.88799 37330 ft 436 kts 22°
2026-04-28 14:40 51.24430 80.93068 37356 ft 436 kts 22°
2026-04-28 14:40 51.29875 80.97341 37349 ft 436 kts 22°
2026-04-28 14:41 51.35313 81.01623 37349 ft 436 kts 22°
2026-04-28 14:41 51.40750 81.05920 37349 ft 435 kts 22°
2026-04-28 14:42 51.46143 81.10199 37348 ft 435 kts 22°
2026-04-28 14:42 51.51570 81.14514 37349 ft 435 kts 22°
2026-04-28 14:43 51.57019 81.18733 37352 ft 433 kts 17°
2026-04-28 14:43 51.62790 81.20970 37350 ft 425 kts
2026-04-28 14:44 51.68646 81.22349 37349 ft 425 kts
2026-04-28 14:44 51.74504 81.23747 37365 ft 425 kts
2026-04-28 14:45 51.80337 81.25128 37349 ft 422 kts
2026-04-28 14:45 51.86148 81.26513 37353 ft 422 kts
2026-04-28 14:46 51.91959 81.27899 37358 ft 422 kts
2026-04-28 14:46 51.97768 81.29301 37367 ft 422 kts
2026-04-28 14:47 52.03563 81.30701 37357 ft 421 kts
2026-04-28 14:47 52.09353 81.32091 37364 ft 421 kts
2026-04-28 14:48 52.15146 81.33481 37371 ft 421 kts
2026-04-28 14:48 52.20936 81.34892 37389 ft 421 kts
2026-04-28 14:49 52.26723 81.36297 37396 ft 420 kts
2026-04-28 14:49 52.32502 81.37707 37393 ft 420 kts
2026-04-28 14:50 52.38274 81.39113 37391 ft 419 kts
2026-04-28 14:50 52.44007 81.40513 37391 ft 419 kts
2026-04-28 14:51 52.49772 81.41940 37403 ft 419 kts
2026-04-28 14:51 52.55533 81.43371 37403 ft 418 kts
2026-04-28 14:52 52.61288 81.44797 37401 ft 418 kts
2026-04-28 14:52 52.67038 81.46214 37411 ft 416 kts
2026-04-28 14:53 52.72750 81.47630 37387 ft 415 kts
2026-04-28 14:53 52.78452 81.49049 37391 ft 414 kts
2026-04-28 14:54 52.84155 81.50467 37394 ft 414 kts
2026-04-28 14:54 52.88890 81.51657 37396 ft 414 kts
2026-04-28 14:55 52.94593 81.53089 37395 ft 414 kts
2026-04-28 14:55 53.00293 81.54515 37414 ft 414 kts
2026-04-28 14:56 53.05991 81.55957 37412 ft 414 kts
2026-04-28 14:56 53.11686 81.57399 37412 ft 414 kts
2026-04-28 14:57 53.17381 81.58843 37410 ft 414 kts
2026-04-28 14:57 53.23072 81.60277 37424 ft 414 kts
2026-04-28 14:58 53.28760 81.61723 37420 ft 413 kts
2026-04-28 14:58 53.34446 81.63185 37421 ft 413 kts
2026-04-28 14:59 53.40124 81.64643 37422 ft 412 kts
2026-04-28 14:59 53.45792 81.66106 37468 ft 412 kts
2026-04-28 15:00 53.51461 81.67566 37348 ft 413 kts
2026-04-28 15:00 53.54317 81.68301 36380 ft 418 kts
2026-04-28 15:00 53.57202 81.69043 35482 ft 418 kts
2026-04-28 15:00 53.60050 81.69778 34278 ft 412 kts
2026-04-28 15:01 53.62875 81.70512 32698 ft 410 kts
2026-04-28 15:01 53.65697 81.71247 31066 ft 411 kts
2026-04-28 15:01 53.68504 81.71975 29617 ft 406 kts
2026-04-28 15:01 53.71280 81.72694 28169 ft 401 kts
2026-04-28 15:02 53.74022 81.73409 26910 ft 399 kts
2026-04-28 15:02 53.76747 81.74124 26383 ft 391 kts
2026-04-28 15:02 53.79410 81.74826 25863 ft 384 kts
2026-04-28 15:02 53.81992 81.75506 25341 ft 378 kts
2026-04-28 15:03 53.84570 81.76184 24822 ft 372 kts
2026-04-28 15:03 53.87113 81.76850 24322 ft 367 kts
2026-04-28 15:03 53.89623 81.77508 23794 ft 363 kts
2026-04-28 15:03 53.92096 81.78155 23313 ft 357 kts
2026-04-28 15:04 53.94528 81.78791 22869 ft 351 kts
2026-04-28 15:04 53.96921 81.79420 22456 ft 345 kts
2026-04-28 15:04 53.99278 81.80042 22035 ft 340 kts
2026-04-28 15:04 54.01605 81.80658 21580 ft 337 kts
2026-04-28 15:05 54.03893 81.81417 21144 ft 335 kts 13°
2026-04-28 15:05 54.06114 81.82544 20698 ft 332 kts 14°
2026-04-28 15:05 54.08316 81.83668 20254 ft 329 kts 14°
2026-04-28 15:05 54.10502 81.84782 19802 ft 327 kts 14°
2026-04-28 15:06 54.12676 81.85887 19355 ft 325 kts 14°
2026-04-28 15:06 54.14840 81.86985 18902 ft 324 kts 14°
2026-04-28 15:06 54.16999 81.88080 18393 ft 323 kts 14°
2026-04-28 15:06 54.19148 81.89174 17922 ft 321 kts 14°
2026-04-28 15:07 54.21284 81.90265 17453 ft 319 kts 14°
2026-04-28 15:07 54.23408 81.91349 16990 ft 318 kts 14°
2026-04-28 15:07 54.25528 81.92434 16526 ft 317 kts 14°
2026-04-28 15:07 54.27641 81.93517 16065 ft 317 kts 14°
2026-04-28 15:08 54.29752 81.94601 15605 ft 317 kts 15°
2026-04-28 15:08 54.31863 81.95688 15144 ft 316 kts 15°
2026-04-28 15:08 54.33971 81.96774 14675 ft 317 kts 15°
2026-04-28 15:08 54.36083 81.97861 14213 ft 317 kts 15°
2026-04-28 15:09 54.38194 81.98946 13716 ft 316 kts 15°
2026-04-28 15:09 54.40297 82.00031 13236 ft 315 kts 15°
2026-04-28 15:09 54.42386 82.01111 12766 ft 313 kts 15°
2026-04-28 15:09 54.43792 82.01836 12450 ft 312 kts 15°
2026-04-28 15:10 54.46533 82.03250 11823 ft 310 kts 15°
2026-04-28 15:10 54.48596 82.04315 11346 ft 309 kts 15°
2026-04-28 15:10 54.50646 82.05376 10982 ft 304 kts 15°
2026-04-28 15:10 54.52632 82.06403 10858 ft 292 kts 15°
2026-04-28 15:11 54.54541 82.07393 10723 ft 282 kts 15°
2026-04-28 15:11 54.56397 82.08361 10485 ft 276 kts 15°
2026-04-28 15:11 54.58225 82.09314 10318 ft 274 kts 15°
2026-04-28 15:11 54.60050 82.10269 10182 ft 274 kts 15°
2026-04-28 15:12 54.61857 82.11217 10020 ft 268 kts 15°
2026-04-28 15:12 54.63627 82.12145 9676 ft 265 kts 15°
2026-04-28 15:12 54.65382 82.13063 9302 ft 263 kts 15°
2026-04-28 15:12 54.67127 82.13974 8948 ft 261 kts 15°
2026-04-28 15:13 54.68889 82.14892 8366 ft 267 kts 16°
2026-04-28 15:13 54.70656 82.15813 8025 ft 264 kts 16°
2026-04-28 15:13 54.72407 82.16731 7641 ft 263 kts 16°
2026-04-28 15:13 54.74152 82.17647 7246 ft 262 kts 16°
2026-04-28 15:14 54.75894 82.18562 6854 ft 261 kts 15°
2026-04-28 15:14 54.77687 82.18911 6415 ft 261 kts 353°
2026-04-28 15:14 54.79385 82.17922 6036 ft 257 kts 327°
2026-04-28 15:14 54.80659 82.15820 6012 ft 255 kts 305°
2026-04-28 15:15 54.81611 82.13237 5664 ft 254 kts 302°
2026-04-28 15:15 54.82538 82.10628 5253 ft 254 kts 301°
2026-04-28 15:15 54.83453 82.08032 5018 ft 251 kts 303°
2026-04-28 15:15 54.84568 82.05692 5021 ft 253 kts 318°
2026-04-28 15:16 54.86005 82.03960 4889 ft 249 kts 336°
2026-04-28 15:16 54.87631 82.03278 4753 ft 235 kts 359°
2026-04-28 15:16 54.89196 82.03748 4625 ft 226 kts 23°
2026-04-28 15:16 54.90494 82.05232 4495 ft 224 kts 46°
2026-04-28 15:17 54.91357 82.07471 4355 ft 225 kts 63°
2026-04-28 15:17 54.92061 82.09894 4067 ft 224 kts 63°
2026-04-28 15:17 54.92767 82.12304 3736 ft 223 kts 63°
2026-04-28 15:17 54.93468 82.14689 3534 ft 218 kts 63°
2026-04-28 15:18 54.94164 82.17058 3478 ft 221 kts 63°
2026-04-28 15:18 54.94863 82.19444 3406 ft 222 kts 63°
2026-04-28 15:18 54.95563 82.21831 3326 ft 221 kts 63°
2026-04-28 15:18 54.96262 82.24218 3240 ft 221 kts 63°
2026-04-28 15:19 54.96960 82.26600 3154 ft 221 kts 63°
2026-04-28 15:19 54.97654 82.28975 3065 ft 220 kts 63°
2026-04-28 15:19 54.98134 82.31488 2960 ft 220 kts 78°
2026-04-28 15:19 54.98391 82.34106 2805 ft 219 kts 81°
2026-04-28 15:20 54.98627 82.36723 2648 ft 218 kts 81°
2026-04-28 15:20 54.98864 82.39275 2518 ft 209 kts 80°
2026-04-28 15:20 54.99089 82.41690 2394 ft 196 kts 80°
2026-04-28 15:20 54.99301 82.43968 2239 ft 185 kts 80°
2026-04-28 15:21 54.99497 82.46079 2141 ft 166 kts 80°
2026-04-28 15:21 54.99672 82.47960 2002 ft 151 kts 81°
2026-04-28 15:21 54.99835 82.49724 1851 ft 144 kts 81°
2026-04-28 15:21 54.99993 82.51423 1677 ft 141 kts 81°
2026-04-28 15:22 55.00147 82.53094 1486 ft 139 kts 81°
2026-04-28 15:22 55.00300 82.54750 1290 ft 138 kts 81°
2026-04-28 15:22 55.00452 82.56401 1096 ft 138 kts 81°
2026-04-28 15:22 55.00603 82.58054 907 ft 138 kts 81°
2026-04-28 15:23 55.00754 82.59703 724 ft 138 kts 81°
2026-04-28 15:23 55.00909 82.61351 507 ft 137 kts 80°
2026-04-28 15:23 55.01062 82.62961 375 ft 135 kts 85°
2026-04-28 15:23 55.01178 82.64337 374 ft 91 kts 81°
2026-04-28 15:24 55.01252 82.65138 373 ft 50 kts 81°
2026-04-28 15:24 55.01301 82.65702 372 ft 44 kts 81°
2026-04-28 15:24 55.01348 82.66203 372 ft 40 kts 82°
2026-04-28 15:24 55.01369 82.66576 374 ft 17 kts 120°
2026-04-28 15:25 55.01309 82.66604 373 ft 7 kts 169°
2026-04-28 15:25 55.01291 82.66611 373 ft 0 kts 168°
2026-04-28 15:25 55.01285 82.66613 373 ft 5 kts 167°
2026-04-28 15:25 55.01248 82.66626 373 ft 5 kts 172°
2026-04-28 15:26 55.01204 82.66636 373 ft 8 kts 172°
2026-04-28 15:26 55.01156 82.66648 373 ft 6 kts 171°
2026-04-28 15:26 55.01116 82.66660 373 ft 5 kts 167°
2026-04-28 15:26 55.01098 82.66708 373 ft 8 kts 96°
2026-04-28 15:27 55.01100 82.66818 373 ft 9 kts 92°
2026-04-28 15:27 55.01080 82.66904 373 ft 7 kts 106°
2026-04-28 15:27 55.01082 82.66978 373 ft 5 kts 83°
2026-04-28 15:27 55.01087 82.67037 373 ft 4 kts 81°
2026-04-28 15:28 55.01093 82.67106 373 ft 6 kts 81°
2026-04-28 15:28 55.01099 82.67172 373 ft 5 kts 81°
2026-04-28 15:28 55.01091 82.67210 373 ft 3 kts 141°
2026-04-28 15:28 55.01076 82.67217 373 ft 2 kts 167°
2026-04-28 15:29 55.01040 82.67229 373 ft 5 kts 169°
2026-04-28 15:29 55.01033 82.67231 373 ft 0 kts 169°